Flag for United Kingdom Weather past 2 weeks in Bury, England, United Kingdom

Now
66 °F

Passing clouds.


Feels Like: 66 °F
Forecast: 55 / 64 °F
Wind: 14 mph from Southwest

Location: Manchester Airport

Current Time: Aug 3, 2015 at 7:02:29 PM

Latest Report: Aug 3, 2015 at 6:20 PM


Visibility: N/A

Pressure: 29.74 "Hg

Humidity: 60%

Dew point: 52 °F

Location of BuryLocation

Historic Weather in Bury — Graph

°F

Bury temperature yesterday

Maximum temperature yesterday: 72 °F (at 4:50 PM)
Minimum temperature yesterday: 52 °F (at 12:20 AM)
Average temperature yesterday: 62 °F

Past Weeks' High & Low Weather Summary

 TemperatureHumidityPressure
High72 °F (Aug 2, 4:50 PM)100% (Jul 20, 1:20 AM)30.15 "Hg (Jul 20, 1:20 AM)
Low43 °F (Jul 31, 1:20 AM)44% (Aug 2, 5:20 PM)29.33 "Hg (Jul 26, 10:50 PM)
Average58 °F78%29.84 "Hg
* Reported Jul 19 5:20 PM — Aug 3 5:50 PM, Bury, Weather by CustomWeather, © 2015

Note: Actual official high and low records may vary slightly from our data, if they occured in-between our weather recording intervals... More about our weather records

Advertising

Bury weather history for previous 24 hours

 ConditionsComfort  
Time TempWeatherWind HumidityBarometerVisibility
5:50 PM
Mon, Aug 3
66 °FPassing clouds.15 mph60%29.74 "HgN/A
5:20 PM68 °FScattered clouds.14 mph53%29.74 "HgN/A
4:50 PM70 °FPassing clouds.15 mph53%29.74 "HgN/A
4:20 PM68 °FPassing clouds.16 mph53%29.74 "HgN/A
3:50 PM68 °FSunny.15 mph53%29.77 "Hg10 mi
3:20 PM66 °FSunny.18 mph60%29.77 "Hg10 mi
2:50 PM66 °FScattered clouds.15 mph64%29.77 "HgN/A
2:20 PM68 °FScattered clouds.15 mph60%29.77 "HgN/A
1:20 PM68 °FScattered clouds.18 mph60%29.77 "HgN/A
12:50 PM68 °FScattered clouds.15 mph64%29.77 "HgN/A
12:20 PM66 °FScattered clouds.14 mph68%29.77 "HgN/A
11:50 AM64 °FScattered showers. Scattered clouds.21 mph73%29.77 "HgN/A
11:20 AM68 °FScattered showers. Scattered clouds.20 mph64%29.74 "HgN/A
10:50 AM68 °FScattered clouds.17 mph69%29.74 "HgN/A
10:20 AM66 °FScattered clouds.15 mph73%29.74 "HgN/A
9:50 AM66 °FPartly sunny.15 mph73%29.74 "HgN/A
9:20 AM64 °FPartly sunny.14 mph78%29.74 "HgN/A
8:50 AM64 °FPassing clouds.14 mph78%29.71 "HgN/A
8:20 AM64 °FPassing clouds.14 mph78%29.71 "HgN/A
7:50 AM64 °FScattered clouds.10 mph73%29.71 "HgN/A
7:20 AM63 °FSunny.10 mph73%29.71 "Hg10 mi
6:50 AM63 °FSunny.12 mph68%29.71 "Hg10 mi
6:20 AM61 °FClear.9 mph68%29.71 "Hg10 mi
5:50 AM61 °FClear.10 mph68%29.68 "Hg10 mi
5:20 AM61 °FClear.12 mph63%29.68 "Hg10 mi
4:50 AM63 °FClear.10 mph59%29.71 "Hg10 mi
3:50 AM64 °FClear.13 mph56%29.71 "Hg10 mi
3:20 AM66 °FClear.12 mph52%29.71 "Hg10 mi
2:50 AM66 °FClear.15 mph52%29.71 "Hg10 mi
2:20 AM68 °FClear.17 mph46%29.71 "Hg10 mi
1:50 AM68 °FClear.15 mph46%29.74 "Hg10 mi
1:20 AM68 °FPassing clouds.14 mph46%29.74 "HgN/A
12:50 AM68 °FClear.15 mph46%29.77 "Hg10 mi
12:20 AM68 °FClear.9 mph46%29.80 "Hg10 mi
11:50 PM
Sun, Aug 2
68 °FClear.10 mph49%29.80 "Hg10 mi
11:20 PM66 °FMild.8 mph52%29.83 "HgN/A
10:20 PM68 °FPassing clouds.14 mph53%29.77 "HgN/A
9:50 PM68 °FSunny.12 mph53%29.80 "Hg10 mi
9:20 PM66 °FSunny.9 mph56%29.86 "Hg10 mi
8:50 PM68 °FSunny.3 mph56%29.86 "Hg10 mi
8:20 PM68 °FSunny.6 mph56%29.86 "Hg10 mi
7:50 PM70 °FPassing clouds.9 mph53%29.86 "HgN/A
7:20 PM70 °FSunny.10 mph53%29.86 "Hg10 mi
Weather by CustomWeather, © 2015

See weather overviewHow to use our weather pages